Вернуться в каталог

CZ-6A DEB

АктивенPO
NORAD 61491·DEBRIS·🇨🇳 China

Запущен Aug 6, 2024 с Taiyuan Satellite Launch Center

Loading…

Ближайшие Пролёты (ближайшие 24 часа)

TLE

СвежийSource: Space-Track

Эпоха: Sep 14, 2026, 16:22 UTC

1 61491U 24140AAZ 26257.68211992  .00000296  00000-0  10142-3 0  9990
2 61491  88.6671 231.8723 0035219 325.3982  34.4923 14.33298426105044

Отслеживайте CZ-6A DEB в реальном времени с AllMySat

Download on the App Store